Lexington Weather

Lexington, Massachusetts, USA

56°F
10/22/2020 7:48pm 
  • Lexington Conditions: Mostly cloudy
  • Temperature: 55.8°F / 13.2°CColder 0.3°F than last hour.
  • Dew Point: 54.3°FDecreased 0.2°Fsince last hour.
  • Relative Humidity: 95%Increased 1.0% since last hour.
  • Wind: Wind from NNE NNE 1 mph, 10-min avg: Calm, gust: 2 mph
  • Barometer: 30.22 in Steady
  • Visibility: 7 miles
  • Rain Today: 0.00 in
  •   

Regional Weather Roundup
for Boston / Norton, MA

        
000
ASUS41 KBOX 171805
RWRBOX

REGIONAL WEATHER ROUNDUP
NATIONAL WEATHER SERVICE BOSTON/NORTON MA
200 PM EDT SAT OCT 17 2020

NOTE:  "FAIR" INDICATES FEW OR NO CLOUDS BELOW 12,000 FEET WITH NO 
SIGNIFICANT WEATHER AND/OR OBSTRUCTIONS TO VISIBILITY.

MAZALL-171900-
EASTERN MASSACHUSETTS
  
CITY           SKY/WX    TMP DP  RH WIND       PRES   REMARKS
BOSTON         MOSUNNY   56  33  42 W21G26    30.20R                  
6HR MIN TEMP:  42; 6HR MAX TEMP:  56; 6HR PCP:  0.02;                

BEVERLY        SUNNY     56  35  45 NW21G28   30.19R                  
LAWRENCE       SUNNY     56  35  45 NW17G25   30.21R                  
BEDFORD        SUNNY     57  35  43 W17G24    30.19R                  
BLUE HILL        N/A     54  36  50 NW14G25   30.19R                  
NORWOOD        SUNNY     59  37  44 W17G23    30.21R                  
MARSHFIELD     SUNNY     57  37  47 NW12G21   30.19S                  
PLYMOUTH       SUNNY     58  38  47 NW14G21   30.20R                  
TAUNTON        SUNNY     59  38  45 MISG      30.21R                  
NEW BEDFORD    SUNNY     59  38  45 NW13G22   30.20S                  
$$

MAZALL-171900-
CAPE COD AND THE ISLANDS
  
CITY           SKY/WX    TMP DP  RH WIND       PRES   REMARKS
FALMOUTH       SUNNY     55  37  50 NW18      30.19S                  
HYANNIS        SUNNY     57  38  48 NW13G22   30.17R                  
CHATHAM        SUNNY     54  37  52 NW10G31   30.19R                  
PROVINCETOWN   SUNNY     55  40  56 NW22G33   30.20R                  
NANTUCKET      SUNNY     54  43  66 NW20G29   30.21R                  
MARTHAS VNYRD  SUNNY     58  38  47 NW18G25   30.20S                  
$$
 
MAZALL-171900-
CENTRAL AND WESTERN MASSACHUSETTS
  
CITY           SKY/WX    TMP DP  RH WIND       PRES   REMARKS
WORCESTER      SUNNY     54  35  48 NW15G25   30.21F                  
6HR MIN TEMP:  38; 6HR MAX TEMP:  54; 6HR PCP: TRACE;                

FITCHBURG      SUNNY     56  34  43 W18G25    30.22S                  
ORANGE         SUNNY     55  34  45 NW14G21   30.24F                  
SPRINGFIELD    NOT AVBL                                               
WESTFIELD      SUNNY     58  29  33 NW10G20   30.24F                  
NORTH ADAMS    SUNNY     54  29  38 NW8       30.26S                  
PITTSFIELD     SUNNY     53  29  39 NW15G23   30.25S                  
$$
 
RIZALL-171900-
RHODE ISLAND
  
CITY           SKY/WX    TMP DP  RH WIND       PRES   REMARKS
PROVIDENCE     SUNNY     58  37  45 NW14G23   30.22F                  
6HR MIN TEMP:  44; 6HR MAX TEMP:  58; 6HR PCP:  0.04;                

NEWPORT        SUNNY     56  38  50 N14G22    30.22S                  
BLOCK ISLAND   SUNNY     56  38  50 NW9       30.25R                  
SMITHFIELD     SUNNY     56  38  50 NW14        N/A                   
WESTERLY       SUNNY     59  34  39 N8        30.24R                  
$$
 
CTZALL-171900-
CONNECTICUT
  
CITY           SKY/WX    TMP DP  RH WIND       PRES   REMARKS
BRADLEY INTL   MOSUNNY   59  29  31 NW9G21    30.24F                  
6HR MIN TEMP:  43; 6HR MAX TEMP:  59;                                

HARTFORD       SUNNY     60  29  30 NW10      30.25S                  
BRIDGEPORT     SUNNY     61  31  32 NW13      30.28R                  
DANBURY        SUNNY     56  29  35 NW10G23   30.30R                  
GROTON         SUNNY     59  35  40 NW14G24   30.24R                  
NEW HAVEN      SUNNY     61  31  32 NW8G18    30.26S                  
CHESTER        NOT AVBL                                               
MERIDEN        SUNNY     59  28  30 NW10G17   30.26R                  
WILLIMANTIC    SUNNY     57  34  41 NW12G18   30.24F                  
OXFORD         SUNNY     55  29  36 NW13G21   30.28R                  
$$

MEZ002-015-021-024-NHZ003-005-008-011-012-014-VTZ005-008-171900-
NORTHERN NEW ENGLAND
  
CITY           SKY/WX    TMP DP  RH WIND       PRES   REMARKS
PORTLAND ME    PTSUNNY   48  40  73 NW18G28   30.14R                  
6HR MIN TEMP:  43; 6HR MAX TEMP:  48; 6HR PCP:  0.05;                

BANGOR ME      LGT RAIN  42  39  89 NW20G29   29.95R VSB 1            
CONCORD NH     SUNNY     55  32  41 NW21G29   30.19R                  
MANCHESTER NH  MOSUNNY   56  31  38 NW13      30.18R                  
NASHUA NH      MOSUNNY   57  34  41 NW17G23   30.21R                  
PORTSMOUTH NH  MOSUNNY   54  35  49 NW18G29   30.16                   
JAFFREY NH     SUNNY     52  31  44 W12G17    30.22R                  
KEENE NH       MOSUNNY   54  32  43 NW10G16   30.23S                  
BURLINGTON VT  MOSUNNY   56  30  37 NW13      30.23S                  
MT. WASHINGTON NOT AVBL                                               
$$

NYZ052-076-171900-
EASTERN NEW YORK
  
CITY           SKY/WX    TMP DP  RH WIND       PRES   REMARKS
ALBANY         MOSUNNY   55  30  38 NW7       30.29R                  
6HR MIN TEMP:  41; 6HR MAX TEMP:  55;                                

NEW YORK CITY  SUNNY     60  29  30 NW13      30.30S                  
6HR MIN TEMP:  49; 6HR MAX TEMP:  60;                                

$$
 
ANZALL-171900-
MARINE OBSERVATIONS
  
STATION/POSITION TIME  TEMP    WIND        PRES    VSBY  WAVE
                       AIR SEA DIR/SP/G                  HT/PER
                 (UTC) (F)     (DEG/KT/KT) (MB)    (MI)  (FT/S)
BOSTON BUOY      1750   53 57  300/ 19/ 25 1021.1R         5/ 4
BUZZARDS BAY     1700          310/ 17/ 22 1024.3R
NANTUCKET SOUND  1750      62  320/ 19/ 25   N/A           2/ 4
MASS BAY-STELLWA 1704   52 58  310/ 23/ 29 1019.9R  1 7/8  5/ 5
ISLE OF SHOALS   1700   49     300/ 28/ 35 1019.5R
S OF BLOCK IS    1726      63                N/A           5/ 5
$$

......................KEY.........................
  SKY/WX - SKY CONDITION/PRESENT WEATHER
  TMP    - TEMPERATURE IN FAHRENHEIT
  DWPT   - DEWPOINT IN FAHRENHEIT
  RH     - RELATIVE HUMIDITY IN PERCENT
  WIND   - DIRECTION AND SPEED IN MPH
  PRES   - MEAN SEA LEVEL PRESSURE IN INCHES OF HG
  WCI    - WIND CHILL INDEX
  VSB    - VISIBILITY IN MILES
  HX     - HEAT INDEX
  TC     - TEMPERATURE IN CELSIUS
  VRB    - VARIABLE WIND DIRECTION
  N/A    - NOT AVAILABLE
  
      

Other recent Regional Weather Roundups

Thu Oct 22, 7:05pm

Thu Oct 22, 6:04pm

Thu Oct 22, 5:04pm

Thu Oct 22, 4:05pm

Thu Oct 22, 3:04pm

Thu Oct 22, 2:05pm

Thu Oct 22, 1:04pm

Thu Oct 22, 12:04pm

Thu Oct 22, 11:04am

Thu Oct 22, 10:05am

Thu Oct 22, 9:04am

Thu Oct 22, 8:05am

Thu Oct 22, 7:04am

Thu Oct 22, 6:04am

Thu Oct 22, 5:04am

Thu Oct 22, 4:04am

Thu Oct 22, 3:04am

Thu Oct 22, 2:04am

Thu Oct 22, 1:04am

Thu Oct 22, 12:04am

Wed Oct 21, 11:05pm

Wed Oct 21, 10:04pm

Wed Oct 21, 9:04pm

Wed Oct 21, 8:04pm

Wed Oct 21, 7:04pm

Wed Oct 21, 6:04pm

Wed Oct 21, 5:05pm

Wed Oct 21, 4:04pm

Wed Oct 21, 3:04pm

Wed Oct 21, 2:05pm

Wed Oct 21, 1:04pm

Wed Oct 21, 12:04pm

Wed Oct 21, 11:04am

Wed Oct 21, 10:04am

Wed Oct 21, 9:04am

Wed Oct 21, 8:04am

Wed Oct 21, 7:04am

Wed Oct 21, 6:04am

Wed Oct 21, 5:04am

Wed Oct 21, 4:04am

Wed Oct 21, 3:04am

Wed Oct 21, 2:04am

Wed Oct 21, 1:04am

Wed Oct 21, 12:04am

Tue Oct 20, 11:05pm

Tue Oct 20, 10:04pm

Tue Oct 20, 9:04pm

Tue Oct 20, 8:05pm

Tue Oct 20, 7:04pm

Tue Oct 20, 6:04pm

Tue Oct 20, 5:05pm

Tue Oct 20, 4:04pm

Tue Oct 20, 3:05pm

Tue Oct 20, 2:07pm

Tue Oct 20, 1:04pm

Tue Oct 20, 12:04pm

Tue Oct 20, 11:04am

Tue Oct 20, 10:05am

Tue Oct 20, 9:04am

Tue Oct 20, 8:04am

Tue Oct 20, 7:04am

Tue Oct 20, 6:04am

Tue Oct 20, 5:04am

Tue Oct 20, 4:04am

Tue Oct 20, 3:04am

Tue Oct 20, 2:04am

Tue Oct 20, 1:04am

Tue Oct 20, 12:04am

Mon Oct 19, 11:04pm

Mon Oct 19, 10:04pm

Mon Oct 19, 9:04pm

Mon Oct 19, 8:04pm

Mon Oct 19, 7:04pm

Mon Oct 19, 6:04pm

Mon Oct 19, 5:04pm

Mon Oct 19, 4:04pm

Mon Oct 19, 3:04pm

Mon Oct 19, 2:04pm

Mon Oct 19, 1:05pm

Mon Oct 19, 12:04pm

Mon Oct 19, 11:04am

Mon Oct 19, 10:04am

Mon Oct 19, 9:04am

Mon Oct 19, 8:04am

Mon Oct 19, 7:04am

Mon Oct 19, 6:04am

Mon Oct 19, 5:04am

Mon Oct 19, 4:04am

Mon Oct 19, 3:04am

Mon Oct 19, 2:04am

Mon Oct 19, 1:04am

Mon Oct 19, 12:05am

Sun Oct 18, 11:04pm

Sun Oct 18, 10:04pm

Sun Oct 18, 9:04pm

Sun Oct 18, 8:04pm

Sun Oct 18, 7:05pm

Sun Oct 18, 6:04pm

Sun Oct 18, 5:05pm

Sun Oct 18, 4:05pm

Sun Oct 18, 3:04pm

Sun Oct 18, 2:05pm

Sun Oct 18, 1:04pm

Sun Oct 18, 12:04pm

Sun Oct 18, 11:04am

Sun Oct 18, 10:04am

Sun Oct 18, 9:04am

Sun Oct 18, 8:04am

Sun Oct 18, 7:04am

Sun Oct 18, 6:04am

Sun Oct 18, 5:04am

Sun Oct 18, 4:04am

Sun Oct 18, 3:04am

Sun Oct 18, 2:04am

Sun Oct 18, 1:04am

Sun Oct 18, 12:04am

Sat Oct 17, 11:05pm

Sat Oct 17, 10:04pm

Sat Oct 17, 9:04pm

Sat Oct 17, 8:04pm

Sat Oct 17, 7:04pm

Sat Oct 17, 6:04pm

Sat Oct 17, 5:05pm

Sat Oct 17, 4:04pm

Sat Oct 17, 3:04pm

Sat Oct 17, 1:05pm

Sat Oct 17, 12:04pm

Sat Oct 17, 11:05am

Sat Oct 17, 10:04am

Sat Oct 17, 9:04am

Sat Oct 17, 8:04am

Sat Oct 17, 7:04am

Sat Oct 17, 6:04am

Sat Oct 17, 5:04am

Sat Oct 17, 4:04am

Sat Oct 17, 3:04am

Sat Oct 17, 2:04am

Sat Oct 17, 1:05am

Sat Oct 17, 12:04am

Fri Oct 16, 11:05pm

Fri Oct 16, 10:04pm

Fri Oct 16, 9:05pm

Fri Oct 16, 8:04pm

Fri Oct 16, 7:05pm

Fri Oct 16, 6:04pm

Fri Oct 16, 5:04pm

Fri Oct 16, 4:05pm

Fri Oct 16, 3:04pm

Fri Oct 16, 2:04pm

Fri Oct 16, 1:04pm

Fri Oct 16, 12:04pm

Fri Oct 16, 11:05am

Fri Oct 16, 10:04am

Fri Oct 16, 9:04am

Fri Oct 16, 8:04am

Fri Oct 16, 7:04am

Fri Oct 16, 6:04am

Fri Oct 16, 5:04am

Fri Oct 16, 4:04am

Fri Oct 16, 3:04am

Fri Oct 16, 2:04am

Fri Oct 16, 1:04am

Fri Oct 16, 12:04am

Thu Oct 15, 11:04pm

Thu Oct 15, 10:04pm

Thu Oct 15, 9:05pm

Thu Oct 15, 8:04pm

Meta data:

ID: ce7b667b-d6a4-47fd-b5b7-f2d962931862
Link: https://api.weather.gov/products/ce7b667b-d6a4-47fd-b5b7-f2d962931862